Clovis, NM

5:02 PM MDT on May 24, 2017 (GMT -0600)
Clovis Municipal

Weather History for KCVN - January, 2013

Change the Weather History Date:

Thursday, January 24, 2013

  Actual Average Record
Temperature  
Mean Temperature 55 °F -  
Max Temperature 73 °F 54 °F 76 °F (1972)
Min Temperature 37 °F 24 °F 1 °F (1963)
Degree Days  
Heating Degree Days 10    
Growing Degree Days 5 (Base 50)    
Moisture  
Dew Point 17 °F    
Average Humidity 24    
Maximum Humidity 36    
Minimum Humidity 12    
Precipitation  
Precipitation 0.00 in - - ()
Sea Level Pressure  
Sea Level Pressure 30.14 in    
Wind  
Wind Speed 16 mph (West)    
Max Wind Speed 25 mph    
Max Gust Speed 34 mph    
Visibility 10 miles    
Events      
Averages and records for this station are not official NWS values.
T = Trace of Precipitation, MM = Missing Value Source: NWS Daily Summary

Daily Weather History Graph

Daily Weather History Graph

Search for Another Location

Airport or City:

Trip Planner

Search our weather history database for the weather conditions in past years. The results will help you decide how hot, cold, wet, or windy it might be!

Date:

Astronomy

Jan. 24, 2013 Rise Set
Actual Time 6:54 AM MST 5:14 PM MST
Civil Twilight 6:28 AM MST 5:41 PM MST
Nautical Twilight 5:57 AM MST 6:11 PM MST
Astronomical Twilight 5:27 AM MST 6:41 PM MST
Moon 3:19 PM MST 4:52 AM MST
Length of Visible Light 11h 13m
Length of Day
10h 19m
Waxing Gibbous, 95% of the Moon is Illuminated
Jan 24
Waxing Gibbous
Jan 26
Full
Feb 3
Last Quarter
Feb 10
New
Feb 17
First Quarter

Hourly Weather History & Observations

Time (MST) Temp. Windchill Dew Point Humidity Pressure Visibility Wind Dir Wind Speed Gust Speed Precip Events Conditions
12:15 AM 46.4 °F 40.4 °F 8.6 °F 22% 30.18 in 10.0 mi West 13.8 mph - N/A   Clear
12:35 AM 46.4 °F 39.0 °F 8.6 °F 22% 30.18 in 10.0 mi West 19.6 mph - N/A   Clear
12:55 AM 46.4 °F 39.8 °F 8.6 °F 22% 30.18 in 10.0 mi West 16.1 mph - N/A   Clear
1:15 AM 44.6 °F 37.4 °F 6.8 °F 21% 30.18 in 10.0 mi WNW 16.1 mph - N/A   Clear
1:35 AM 44.6 °F 37.4 °F 8.6 °F 23% 30.18 in 10.0 mi West 16.1 mph - N/A   Clear
1:55 AM 44.6 °F 38.8 °F 6.8 °F 21% 30.18 in 10.0 mi West 11.5 mph - N/A   Clear
2:15 AM 42.8 °F 36.2 °F 8.6 °F 25% 30.18 in 10.0 mi West 12.7 mph - N/A   Clear
2:35 AM 44.6 °F 39.7 °F 8.6 °F 23% 30.18 in 10.0 mi West 9.2 mph - N/A   Clear
2:55 AM 44.6 °F 39.7 °F 8.6 °F 23% 30.18 in 10.0 mi West 9.2 mph - N/A   Clear
3:15 AM 44.6 °F 38.4 °F 8.6 °F 23% 30.18 in 10.0 mi West 12.7 mph - N/A   Clear
3:35 AM 42.8 °F 36.6 °F 8.6 °F 25% 30.18 in 10.0 mi West 11.5 mph - N/A   Clear
3:55 AM 42.8 °F 35.1 °F 8.6 °F 25% 30.18 in 10.0 mi West 16.1 mph - N/A   Clear
4:15 AM 44.6 °F 37.8 °F 8.6 °F 23% 30.19 in 10.0 mi West 15.0 mph - N/A   Clear
4:35 AM 44.6 °F 37.4 °F 8.6 °F 23% 30.18 in 10.0 mi West 16.1 mph - N/A   Clear
4:55 AM 44.6 °F 38.8 °F 10.4 °F 25% 30.19 in 10.0 mi NW 11.5 mph - N/A   Clear
5:15 AM 39.2 °F 31.6 °F 8.6 °F 28% 30.19 in 10.0 mi WNW 12.7 mph - N/A   Clear
5:35 AM 37.4 °F 29.8 °F 8.6 °F 30% 30.19 in 10.0 mi West 11.5 mph - N/A   Clear
5:55 AM 37.4 °F 29.3 °F 10.4 °F 33% 30.19 in 10.0 mi West 12.7 mph - N/A   Clear
6:15 AM 39.2 °F 30.8 °F 12.2 °F 33% 30.19 in 10.0 mi West 15.0 mph - N/A   Clear
6:35 AM 39.2 °F 32.0 °F 12.2 °F 33% 30.20 in 10.0 mi West 11.5 mph - N/A   Clear
6:55 AM 37.4 °F 30.3 °F 10.4 °F 33% 30.20 in 10.0 mi WNW 10.4 mph - N/A   Clear
7:15 AM 37.4 °F 30.3 °F 12.2 °F 36% 30.20 in 10.0 mi WNW 10.4 mph - N/A   Clear
7:35 AM 39.2 °F 33.0 °F 12.2 °F 33% 30.20 in 10.0 mi WNW 9.2 mph - N/A   Clear
7:55 AM 42.8 °F 36.6 °F 15.8 °F 34% 30.20 in 10.0 mi West 11.5 mph - N/A   Clear
8:15 AM 44.6 °F 39.2 °F 15.8 °F 31% 30.20 in 10.0 mi West 10.4 mph - N/A   Clear
8:35 AM 44.6 °F 41.4 °F 15.8 °F 31% 30.21 in 10.0 mi West 5.8 mph - N/A   Clear
8:55 AM 48.2 °F - 17.6 °F 30% 30.21 in 10.0 mi West 10.4 mph - N/A   Clear
9:15 AM 51.8 °F - 17.6 °F 26% 30.21 in 10.0 mi West 12.7 mph - N/A   Clear
9:35 AM 55.4 °F - 17.6 °F 23% 30.20 in 10.0 mi West 15.0 mph - N/A   Clear
9:55 AM 57.2 °F - 17.6 °F 21% 30.20 in 10.0 mi West 16.1 mph - N/A   Clear
10:15 AM 60.8 °F - 17.6 °F 19% 30.20 in 10.0 mi West 18.4 mph - N/A   Clear
10:35 AM 62.6 °F - 15.8 °F 16% 30.19 in 10.0 mi West 17.3 mph 21.9 mph N/A   Clear
10:55 AM 64.4 °F - 15.8 °F 15% 30.17 in 10.0 mi West 23.0 mph 29.9 mph N/A   Clear
11:15 AM 66.2 °F - 15.8 °F 14% 30.17 in 10.0 mi West 20.7 mph 29.9 mph N/A   Clear
11:35 AM 68.0 °F - 15.8 °F 13% 30.15 in 10.0 mi WSW 18.4 mph - N/A   Clear
11:55 AM 68.0 °F - 15.8 °F 13% 30.14 in 10.0 mi WSW 23.0 mph 26.5 mph N/A   Clear
12:15 PM 68.0 °F - 15.8 °F 13% 30.13 in 10.0 mi WSW 20.7 mph 24.2 mph N/A   Clear
12:35 PM 71.6 °F - 17.6 °F 13% 30.11 in 10.0 mi West 24.2 mph 31.1 mph N/A   Clear
12:55 PM 71.6 °F - 15.8 °F 12% 30.10 in 10.0 mi WSW 24.2 mph 29.9 mph N/A   Clear
1:15 PM 73.4 °F - 17.6 °F 12% 30.09 in 10.0 mi WSW 25.3 mph 29.9 mph N/A   Clear
1:35 PM 73.4 °F - 17.6 °F 12% 30.08 in 10.0 mi WSW 20.7 mph 32.2 mph N/A   Clear
1:55 PM 69.8 °F - 15.8 °F 13% 30.07 in 10.0 mi WSW 24.2 mph 31.1 mph N/A   Clear
2:15 PM 73.4 °F - 19.4 °F 13% 30.07 in 10.0 mi West 25.3 mph 32.2 mph N/A   Clear
2:35 PM 71.6 °F - 17.6 °F 13% 30.07 in 10.0 mi WSW 25.3 mph 32.2 mph N/A   Clear
2:55 PM 69.8 °F - 17.6 °F 14% 30.08 in 10.0 mi West 24.2 mph 33.4 mph N/A   Clear
3:15 PM 69.8 °F - 19.4 °F 15% 30.08 in 10.0 mi West 23.0 mph 34.5 mph N/A   Clear
3:35 PM 68.0 °F - 19.4 °F 16% 30.07 in 10.0 mi West 24.2 mph 29.9 mph N/A   Clear
3:55 PM 66.2 °F - 21.2 °F 18% 30.07 in 10.0 mi West 16.1 mph - N/A   Clear
4:15 PM 66.2 °F - 23.0 °F 19% 30.07 in 10.0 mi WSW 18.4 mph 25.3 mph N/A   Clear
4:35 PM 66.2 °F - 24.8 °F 21% 30.08 in 10.0 mi WSW 16.1 mph - N/A   Clear
4:55 PM 66.2 °F - 24.8 °F 21% 30.08 in 10.0 mi West 18.4 mph 29.9 mph N/A   Clear
5:15 PM 64.4 °F - 23.0 °F 21% 30.08 in 10.0 mi WSW 17.3 mph - N/A   Clear
5:35 PM 64.4 °F - 23.0 °F 21% 30.08 in 10.0 mi WSW 18.4 mph 24.2 mph N/A   Clear
5:55 PM 64.4 °F - 24.8 °F 22% 30.08 in 10.0 mi WSW 21.9 mph 26.5 mph N/A   Clear
6:15 PM 64.4 °F - 24.8 °F 22% 30.09 in 10.0 mi WSW 19.6 mph 26.5 mph N/A   Clear
6:35 PM 64.4 °F - 26.6 °F 24% 30.09 in 10.0 mi WSW 19.6 mph 27.6 mph N/A   Clear
6:55 PM 64.4 °F - 26.6 °F 24% 30.10 in 10.0 mi West 24.2 mph 32.2 mph N/A   Clear
7:15 PM 64.4 °F - 24.8 °F 22% 30.10 in 10.0 mi West 20.7 mph - N/A   Clear
7:35 PM 62.6 °F - 24.8 °F 24% 30.10 in 10.0 mi West 18.4 mph - N/A   Clear
7:55 PM 57.2 °F - 24.8 °F 29% 30.11 in 10.0 mi WSW 11.5 mph - N/A   Clear
8:15 PM 55.4 °F - 24.8 °F 31% 30.10 in 10.0 mi WSW 12.7 mph - N/A   Clear
8:35 PM 55.4 °F - 26.6 °F 33% 30.09 in 10.0 mi WSW 13.8 mph - N/A   Clear
8:55 PM 55.4 °F - 26.6 °F 33% 30.10 in 10.0 mi WSW 16.1 mph - N/A   Clear
9:15 PM 55.4 °F - 26.6 °F 33% 30.10 in 10.0 mi WSW 18.4 mph - N/A   Clear
9:35 PM 55.4 °F - 26.6 °F 33% 30.10 in 10.0 mi WSW 17.3 mph - N/A   Clear
9:55 PM 57.2 °F - 24.8 °F 29% 30.10 in 10.0 mi WSW 16.1 mph - N/A   Clear
10:15 PM 57.2 °F - 24.8 °F 29% 30.10 in 10.0 mi West 20.7 mph 24.2 mph N/A   Clear
10:35 PM 57.2 °F - 24.8 °F 29% 30.10 in 10.0 mi West 25.3 mph - N/A   Clear
10:55 PM 57.2 °F - 24.8 °F 29% 30.10 in 10.0 mi West 20.7 mph 29.9 mph N/A   Clear
11:15 PM 57.2 °F - 23.0 °F 27% 30.11 in 10.0 mi West 24.2 mph 31.1 mph N/A   Clear
11:35 PM 55.4 °F - 24.8 °F 31% 30.11 in 10.0 mi West 20.7 mph 29.9 mph N/A   Clear
11:55 PM 55.4 °F - 24.8 °F 31% 30.09 in 10.0 mi West 24.2 mph 31.1 mph N/A   Clear